Simultaneous Nadir Overpasses (SNOs) Predictions

Prediction of SNOs between AQUA and GOES-15 Satellite Orbit:

Table of predicted SNOs for the next 14.0 days since TLE Epoch: 11/11/2023
Index Date Time (AQUA) AQUA Lat,Lon GOES-15 Lat,Lon Distance(km) Time Diff (sec)
1 11/12/2023 09:41:25 0.38, 63.76 -0.07, 61.78 226.86 80
2 11/12/2023 22:01:57 0.67, 58.79 0.04, 61.73 334.51 80
3 11/14/2023 21:46:57 -0.07, 62.46 0.06, 61.74 81.07 80
4 11/15/2023 10:07:38 -0.98, 57.45 -0.03, 61.80 494.75 80
5 11/16/2023 21:31:57 -0.87, 66.12 0.07, 61.76 496.02 80
6 11/17/2023 09:52:38 -0.17, 61.11 -0.04, 61.81 79.40 80
7 11/19/2023 09:37:36 0.58, 64.78 -0.05, 61.83 335.76 80
8 11/19/2023 21:58:07 0.44, 59.81 0.02, 61.78 224.35 80
9 11/21/2023 21:43:05 -0.31, 63.49 0.03, 61.80 190.84 80
10 11/22/2023 10:03:44 -0.75, 58.48 -0.00, 61.87 386.29 80
11 11/24/2023 09:48:41 0.06, 62.15 -0.01, 61.90 29.72 80
